Location: Dalton
(34.7700°N, 84.9700°W)
Time: 07:41:59
(UTC-04:00)

N. Korean satellite - Pass Details

Date: 09 October 2017
Orbit: 459 x 517 km, 97.2° (Epoch: 22 October)

Event Time Altitude Azimuth Distance (km) Brightness Sun altitude
Rises 19:44:12 0° 166° (SSE) 2,578 10.1 -7.3°
Reaches altitude 10° 19:46:17 10° 165° (SSE) 1,690 9.2 -7.7°
Maximum altitude 19:49:55 83° 80° (E) 499 6.5 -8.5°
Drops below altitude 10° 19:53:31 10° 350° (N) 1,669 9.4 -9.2°
Sets 19:55:34 0° 350° (N) 2,543 10.3 -9.6°
